Moose Lake, MN

5:58 PM CST on December 16, 2017 (GMT -0600)
Moose Lake-Carlton County

Weather History for KMZH - October, 2013

Change the Weather History Date:

Sunday, October 13, 2013

  Actual Average Record
Temperature  
Mean Temperature 44 °F -  
Max Temperature 55 °F 56 °F 82 °F (1956)
Min Temperature 33 °F 34 °F 18 °F (1965)
Degree Days  
Heating Degree Days 21    
Moisture  
Dew Point 34 °F    
Average Humidity 74    
Maximum Humidity 100    
Minimum Humidity 41    
Precipitation  
Precipitation 0.00 in - - ()
Sea Level Pressure  
Sea Level Pressure 30.31 in    
Wind  
Wind Speed 4 mph (West)    
Max Wind Speed 12 mph    
Max Gust Speed 22 mph    
Visibility 10 miles    
Events      
Averages and records for this station are not official NWS values.
T = Trace of Precipitation, MM = Missing Value Source: NWS Daily Summary

Daily Weather History Graph

Daily Weather History Graph

Search for Another Location

Airport or City:

Trip Planner

Search our weather history database for the weather conditions in past years. The results will help you decide how hot, cold, wet, or windy it might be!

Date:

Astronomy

Oct. 13, 2013 Rise Set
Actual Time 7:26 AM CDT 6:27 PM CDT
Civil Twilight 6:55 AM CDT 6:57 PM CDT
Nautical Twilight 6:20 AM CDT 7:32 PM CDT
Astronomical Twilight 5:46 AM CDT 8:07 PM CDT
Moon 3:36 PM CDT (10/13) 1:17 AM CDT (10/13)
Length of Visible Light 12h 02m
Length of Day
11h 01m
Waxing Gibbous, 69% of the Moon is Illuminated
Oct 13
Waxing Gibbous
Oct 18
Full
Oct 26
Last Quarter
Nov 3
New
Nov 9
First Quarter

Hourly Weather History & Observations

Time (CDT) Temp. Windchill Dew Point Humidity Pressure Visibility Wind Dir Wind Speed Gust Speed Precip Events Conditions
12:06 AM 44.6 °F 40.7 °F 41.0 °F 87% 30.10 in 10.0 mi West 6.9 mph - N/A   Scattered Clouds
12:26 AM 44.6 °F 41.4 °F 41.0 °F 87% 30.11 in 10.0 mi WSW 5.8 mph - N/A   Clear
12:46 AM 42.8 °F 40.1 °F 39.2 °F 87% 30.13 in 10.0 mi WSW 4.6 mph - 0.01 in   Scattered Clouds
1:06 AM 41.0 °F 38.0 °F 39.2 °F 93% 30.13 in 10.0 mi WSW 4.6 mph - N/A   Scattered Clouds
1:26 AM 41.0 °F 38.0 °F 37.4 °F 87% 30.14 in 10.0 mi WSW 4.6 mph - N/A   Scattered Clouds
1:46 AM 41.0 °F 38.0 °F 37.4 °F 87% 30.15 in 10.0 mi WSW 4.6 mph - N/A   Clear
2:06 AM 39.2 °F 35.9 °F 37.4 °F 93% 30.16 in 10.0 mi WSW 4.6 mph - N/A   Scattered Clouds
2:26 AM 41.0 °F 38.0 °F 37.4 °F 87% 30.17 in 10.0 mi WSW 4.6 mph - N/A   Scattered Clouds
2:46 AM 37.4 °F 32.8 °F 35.6 °F 93% 30.18 in 10.0 mi WSW 5.8 mph - N/A   Scattered Clouds
3:06 AM 37.4 °F 33.8 °F 35.6 °F 93% 30.19 in 10.0 mi WSW 4.6 mph - N/A   Clear
3:26 AM 37.4 °F 33.8 °F 35.6 °F 93% 30.19 in 10.0 mi West 4.6 mph - N/A   Clear
3:46 AM 37.4 °F 32.8 °F 35.6 °F 93% 30.20 in 10.0 mi West 5.8 mph - N/A   Clear
4:06 AM 37.4 °F 32.8 °F 35.6 °F 93% 30.21 in 10.0 mi West 5.8 mph - N/A   Clear
4:26 AM 37.4 °F 34.9 °F 35.6 °F 93% 30.22 in 10.0 mi West 3.5 mph - N/A   Clear
4:46 AM 37.4 °F 34.9 °F 35.6 °F 93% 30.23 in 10.0 mi West 3.5 mph - N/A   Clear
5:07 AM 37.4 °F 34.9 °F 35.6 °F 93% 30.23 in 10.0 mi West 3.5 mph - N/A   Clear
5:26 AM 37.4 °F 32.8 °F 35.6 °F 93% 30.24 in 10.0 mi West 5.8 mph - N/A   Clear
5:46 AM 37.4 °F 33.8 °F 35.6 °F 93% 30.25 in 10.0 mi West 4.6 mph - N/A   Clear
6:06 AM 37.4 °F 34.9 °F 35.6 °F 93% 30.26 in 10.0 mi West 3.5 mph - N/A   Clear
6:26 AM 37.4 °F 34.9 °F 35.6 °F 93% 30.26 in 10.0 mi West 3.5 mph - N/A   Clear
6:46 AM 37.4 °F 33.8 °F 35.6 °F 93% 30.28 in 10.0 mi West 4.6 mph - N/A   Clear
7:06 AM 35.6 °F 32.8 °F 33.8 °F 93% 30.29 in 10.0 mi West 3.5 mph - N/A   Clear
7:26 AM 35.6 °F 32.8 °F 33.8 °F 93% 30.30 in 10.0 mi West 3.5 mph - N/A   Clear
7:46 AM 35.6 °F 31.7 °F 35.6 °F 100% 30.30 in 10.0 mi WNW 4.6 mph - N/A   Clear
8:06 AM 37.4 °F 33.8 °F 35.6 °F 93% 30.31 in 10.0 mi West 4.6 mph - N/A   Clear
8:26 AM 37.4 °F 32.8 °F 35.6 °F 93% 30.33 in 10.0 mi West 5.8 mph - N/A   Clear
8:46 AM 41.0 °F 36.4 °F 35.6 °F 81% 30.34 in 10.0 mi WNW 6.9 mph - N/A   Clear
9:06 AM 42.8 °F 41.1 °F 35.6 °F 76% 30.35 in 10.0 mi West 3.5 mph - N/A   Clear
9:26 AM 42.8 °F 40.1 °F 35.6 °F 76% 30.36 in 10.0 mi WNW 4.6 mph - N/A   Clear
9:46 AM 44.6 °F 42.2 °F 37.4 °F 76% 30.36 in 10.0 mi NW 4.6 mph - N/A   Clear
10:06 AM 46.4 °F 45.2 °F 35.6 °F 66% 30.37 in 10.0 mi WNW 3.5 mph - N/A   Clear
10:26 AM 48.2 °F - 35.6 °F 62% 30.37 in 10.0 mi NNW 5.8 mph - N/A   Clear
10:46 AM 50.0 °F - 33.8 °F 54% 30.37 in 10.0 mi NNW 3.5 mph - N/A   Clear
11:06 AM 50.0 °F - 33.8 °F 54% 30.38 in 10.0 mi Calm Calm - N/A   Clear
11:26 AM 51.8 °F - 32.0 °F 47% 30.38 in 10.0 mi Calm Calm - N/A   Clear
11:46 AM 51.8 °F - 32.0 °F 47% 30.38 in 10.0 mi West 3.5 mph - N/A   Clear
12:06 PM 51.8 °F - 30.2 °F 44% 30.38 in 10.0 mi West 6.9 mph - N/A   Clear
12:26 PM 53.6 °F - 30.2 °F 41% 30.38 in 10.0 mi West 5.8 mph - N/A   Clear
12:46 PM 53.6 °F - 32.0 °F 44% 30.37 in 10.0 mi SW 6.9 mph - N/A   Clear
1:07 PM 53.6 °F - 32.0 °F 44% 30.37 in 10.0 mi WNW 5.8 mph - N/A   Scattered Clouds
1:26 PM 53.6 °F - 32.0 °F 44% 30.37 in 10.0 mi West 6.9 mph - N/A   Clear
1:46 PM 53.6 °F - 32.0 °F 44% 30.36 in 10.0 mi WNW 4.6 mph - N/A   Scattered Clouds
2:06 PM 55.4 °F - 32.0 °F 41% 30.35 in 10.0 mi WNW 11.5 mph 21.9 mph N/A   Scattered Clouds
2:26 PM 55.4 °F - 32.0 °F 41% 30.35 in 10.0 mi West 4.6 mph - N/A   Scattered Clouds
2:46 PM 55.4 °F - 32.0 °F 41% 30.35 in 10.0 mi NNW 5.8 mph - N/A   Clear
3:06 PM 55.4 °F - 32.0 °F 41% 30.34 in 10.0 mi West 6.9 mph - N/A   Clear
3:26 PM 55.4 °F - 32.0 °F 41% 30.34 in 10.0 mi West 3.5 mph - N/A   Clear
3:46 PM 55.4 °F - 32.0 °F 41% 30.33 in 10.0 mi West 6.9 mph - N/A   Clear
4:06 PM 55.4 °F - 32.0 °F 41% 30.33 in 10.0 mi NNW 5.8 mph - N/A   Clear
4:26 PM 55.4 °F - 32.0 °F 41% 30.34 in 10.0 mi WSW 4.6 mph - N/A   Clear
4:46 PM 55.4 °F - 32.0 °F 41% 30.34 in 10.0 mi WNW 5.8 mph - N/A   Clear
5:06 PM 55.4 °F - 32.0 °F 41% 30.33 in 10.0 mi West 3.5 mph - N/A   Clear
5:26 PM 53.6 °F - 32.0 °F 44% 30.33 in 10.0 mi WNW 4.6 mph - N/A   Clear
5:46 PM 53.6 °F - 30.2 °F 41% 30.33 in 10.0 mi Calm Calm - N/A   Clear
6:06 PM 51.8 °F - 32.0 °F 47% 30.34 in 10.0 mi West 3.5 mph - N/A   Clear
6:26 PM 46.4 °F - 32.0 °F 57% 30.34 in 10.0 mi Calm Calm - N/A   Clear
6:46 PM 42.8 °F - 33.8 °F 70% 30.34 in 10.0 mi Calm Calm - N/A   Clear
7:06 PM 42.8 °F - 33.8 °F 70% 30.35 in 10.0 mi Calm Calm - N/A   Scattered Clouds
7:26 PM 41.0 °F - 35.6 °F 81% 30.35 in 10.0 mi Calm Calm - N/A   Clear
7:46 PM 37.4 °F - 33.8 °F 87% 30.36 in 10.0 mi Calm Calm - N/A   Clear
8:06 PM 37.4 °F - 33.8 °F 87% 30.36 in 10.0 mi Calm Calm - N/A   Clear
8:26 PM 37.4 °F - 33.8 °F 87% 30.36 in 10.0 mi Calm Calm - N/A   Clear
8:46 PM 35.6 °F - 33.8 °F 93% 30.36 in 10.0 mi Calm Calm - N/A   Clear
9:06 PM 35.6 °F - 33.8 °F 93% 30.36 in 10.0 mi Calm Calm - N/A   Clear
9:26 PM 35.6 °F - 33.8 °F 93% 30.37 in 10.0 mi Calm Calm - N/A   Clear
9:46 PM 35.6 °F - 33.8 °F 93% 30.37 in 10.0 mi Calm Calm - N/A   Clear
10:06 PM 33.8 °F - 33.8 °F 100% 30.37 in 10.0 mi Calm Calm - N/A   Clear
10:26 PM 35.6 °F - 33.8 °F 93% 30.37 in 10.0 mi Calm Calm - N/A   Clear
10:46 PM 33.8 °F - 33.8 °F 100% 30.37 in 10.0 mi Calm Calm - N/A   Clear
11:06 PM 33.8 °F - 32.0 °F 93% 30.37 in 10.0 mi Calm Calm - N/A   Clear
11:26 PM 33.8 °F - 32.0 °F 93% 30.37 in 10.0 mi Calm Calm - N/A   Clear
11:46 PM 33.8 °F - 32.0 °F 93% 30.38 in 10.0 mi Calm Calm - N/A   Clear